Vorticity
5 7 7 8 8 8 9 7 6 9 10 11 13 15 16 16 18 17 17 12 11 14 15 7 6 7 7 9 9 10 10 9 7 6 7 7 7 7 6 5 4 3 4 7 6
7 6 7 4 5 4 3 5 7 9 9 9 9 12 12 13 13 14 18 14 14 15 16 17 13 9 8 7 9 9 8 7 7 8 7 6 5 5 4 4 5 5 6 6 3
5 3 6 3 3 6 3 6 5 4 6 5 7 5 6 4 7 14 16 13 10 12 14 15 17 13 11 11 10 8 7 6 5 4 3 3 3 4 4 4 3 4 5 5 7
7 6 3 5 4 6 2 5 4 5 6 8 10 7 5 6 4 18 13 18 13 9 8 6 7 9 11 11 8 8 7 6 5 4 3 2 2 5 6 8 9 9 9 7 6
4 7 6 7 5 5 5 5 4 5 8 6 4 8 8 13 9 5 13 14 12 7 5 6 7 8 7 6 4 3 2 3 5 7 8 9 9 8 8 8 8 7 6 5 6
5 6 4 5 5 5 5 5 4 5 7 6 8 8 7 12 15 15 8 10 15 13 13 11 11 9 9 10 9 9 10 10 10 10 11 11 10 9 9 7 6 6 6 7 6
4 4 4 5 5 5 6 5 6 4 1 1 9 5 6 8 7 13 17 8 11 12 16 14 12 11 9 7 8 8 9 9 9 9 9 10 9 8 7 6 6 7 8 6 7
3 4 6 7 6 4 4 5 6 2 8 7 -1 10 2 5 9 14 5 3 2 7 9 6 17 17 13 13 15 12 11 12 11 10 9 8 8 6 6 6 6 7 8 8 7
3 3 6 7 8 8 3 5 4 3 2 10 2 6 6 2 13 12 9 11 12 15 0 10 10 6 11 16 11 12 11 9 8 8 7 7 8 6 7 8 7 8 8 5 5
3 4 5 7 8 7 12 7 3 4 3 8 2 -1 5 5 2 1 11 10 13 14 9 7 8 10 9 13 14 11 9 9 9 9 9 8 11 8 7 6 7 7 6 6 6
4 4 5 7 8 5 5 9 11 7 6 4 15 -1 2 4 4 9 3 2 11 11 9 11 13 9 5 11 12 13 10 10 10 8 8 10 7 7 6 7 5 7 7 5 7
4 4 5 7 6 5 5 6 5 4 9 7 4 1 4 -0 11 4 5 2 1 5 7 2 9 21 14 8 8 10 9 9 7 7 7 7 7 6 7 7 10 6 6 7 8
4 4 5 6 7 5 6 5 8 7 17 9 11 6 1 2 14 1 6 4 2 1 5 8 9 11 19 14 8 8 7 7 8 7 8 9 7 7 9 9 4 9 7 7 7
5 3 4 5 6 5 7 7 9 6 7 9 22 10 9 6 11 2 5 7 7 5 4 4 5 6 10 14 12 9 8 8 8 9 8 7 9 12 7 8 5 9 4 6 3
6 4 3 3 7 5 5 7 9 9 4 7 18 12 5 8 6 3 5 8 7 6 7 4 2 4 4 8 12 11 8 8 8 10 11 9 7 7 7 9 9 6 4 3 7
7 5 4 3 5 7 5 5 7 10 10 1 7 10 2 12 7 6 9 10 9 9 9 5 4 3 8 7 8 9 11 11 10 9 10 8 12 8 8 6 5 3 5 5 1
6 5 4 4 4 6 6 5 6 8 8 7 7 8 11 11 12 10 9 8 8 9 8 6 7 8 9 12 11 13 13 12 11 10 8 9 6 9 5 3 4 4 2 7 7
6 6 5 4 4 4 6 6 5 8 7 6 6 4 6 7 5 6 6 6 3 2 3 2 2 2 2 8 13 14 10 7 7 8 7 5 10 9 0 5 3 4 7 4 4
4 6 6 5 5 4 6 6 5 5 7 7 5 7 6 6 7 5 4 4 4 4 4 5 6 5 6 7 13 9 9 6 7 4 7 11 6 -1 4 4 6 9 1 5 5
5 4 5 6 6 5 3 6 6 6 7 9 6 6 7 8 9 6 0 0 6 3 9 12 14 10 10 11 12 10 10 6 5 7 7 5 4 3 5 4 8 1 5 3 6
7 5 5 5 5 2 3 5 7 7 6 8 8 6 5 5 4 0 -1 0 -1 10 12 22 17 14 10 14 12 11 7 3 6 6 6 4 2 4 2 10 1 3 5 4 7
7 7 5 5 3 4 4 6 6 9 7 7 7 8 5 6 5 3 1 -0 -1 11 11 16 12 15 12 12 10 8 4 4 7 6 8 1 -3 3 10 -0 1 6 4 6 6
9 7 7 5 2 5 5 3 6 7 8 6 7 8 7 5 5 2 1 2 3 9 11 15 13 10 11 11 9 7 4 4 8 7 3 -3 6 11 -1 2 8 4 6 6 3
8 6 5 5 4 4 5 4 6 10 10 7 6 6 7 7 6 6 7 3 5 10 12 11 11 14 10 11 10 6 2 6 6 7 1 8 5 5 2 9 5 6 6 4 8
3 5 7 5 7 8 6 2 4 8 12 9 7 7 6 7 8 7 5 1 9 14 12 8 6 11 12 13 9 6 5 3 8 1 1 5 2 3 9 4 7 6 9 6 9
33 18 6 7 8 7 2 6 7 5 9 10 7 6 6 9 6 8 4 2 6 15 10 9 12 10 12 13 6 8 8 6 -2 10 6 4 4 6 6 5 8 11 5 7 12
28 28 5 4 6 6 5 7 7 5 4 7 7 7 5 8 7 6 4 2 12 14 11 10 12 10 8 13 7 7 3 11 3 4 1 5 4 6 2 5 11 8 8 13 12
Height
5784 5783 5782 5782 5781 5781 5780 5778 5776 5774 5772 5769 5767 5765 5763 5761 5760 5759 5758 5759 5759 5758 5758 5760 5761 5762 5762 5763 5764 5765 5767 5769 5770 5771 5773 5774 5776 5776 5777 5778 5778 5779 5779 5780 5777
5782 5781 5780 5779 5778 5777 5776 5774 5773 5770 5768 5765 5763 5760 5758 5756 5754 5753 5752 5751 5751 5751 5751 5751 5753 5754 5755 5756 5757 5759 5761 5762 5764 5766 5767 5768 5770 5770 5771 5770 5772 5772 5773 5773 5771
5779 5778 5777 5776 5775 5773 5772 5771 5768 5766 5763 5761 5759 5757 5754 5752 5751 5748 5746 5745 5745 5746 5745 5745 5746 5748 5749 5750 5751 5752 5754 5756 5758 5760 5761 5761 5762 5763 5764 5764 5764 5765 5765 5765 5764
5776 5775 5774 5773 5772 5770 5768 5766 5764 5762 5760 5757 5755 5753 5751 5749 5748 5745 5742 5741 5740 5741 5741 5741 5742 5743 5744 5745 5745 5746 5748 5750 5752 5753 5753 5754 5755 5756 5755 5757 5757 5757 5757 5756 5756
5772 5771 5770 5769 5767 5766 5764 5762 5760 5758 5756 5755 5752 5750 5747 5745 5743 5741 5739 5737 5736 5736 5737 5737 5737 5737 5738 5739 5739 5740 5742 5743 5744 5745 5746 5747 5747 5748 5747 5749 5749 5749 5749 5748 5747
5767 5766 5765 5764 5762 5761 5760 5759 5757 5754 5752 5751 5749 5746 5744 5742 5740 5738 5736 5734 5733 5732 5732 5732 5731 5731 5732 5733 5733 5733 5734 5735 5736 5737 5739 5740 5740 5740 5740 5741 5742 5742 5741 5740 5739
5762 5761 5760 5759 5758 5757 5756 5755 5753 5751 5749 5747 5745 5743 5741 5740 5737 5734 5732 5731 5730 5728 5727 5727 5726 5726 5726 5726 5726 5727 5728 5728 5729 5730 5731 5732 5732 5732 5732 5732 5732 5733 5733 5731 5729
5755 5755 5755 5754 5753 5752 5751 5750 5749 5747 5745 5744 5742 5740 5738 5736 5734 5731 5729 5728 5726 5725 5724 5723 5721 5720 5720 5720 5720 5720 5721 5722 5722 5723 5724 5726 5724 5723 5724 5724 5724 5723 5722 5722 5719
5749 5749 5749 5747 5746 5746 5745 5745 5744 5743 5741 5740 5739 5736 5735 5733 5731 5728 5726 5724 5722 5721 5721 5719 5717 5716 5716 5715 5715 5714 5715 5715 5715 5716 5718 5719 5719 5715 5714 5718 5717 5714 5714 5712 5710
5742 5741 5741 5741 5740 5740 5739 5739 5739 5738 5737 5736 5735 5734 5732 5730 5728 5726 5723 5721 5720 5718 5717 5715 5713 5712 5710 5710 5709 5709 5709 5708 5708 5711 5711 5711 5715 5707 5707 5709 5708 5707 5705 5703 5700
5734 5734 5734 5734 5734 5734 5734 5733 5734 5733 5731 5731 5730 5729 5727 5726 5724 5722 5720 5719 5717 5715 5713 5711 5710 5707 5706 5704 5704 5703 5703 5703 5703 5704 5705 5703 5706 5703 5700 5700 5698 5697 5695 5692 5688
5727 5727 5726 5726 5727 5727 5727 5727 5726 5726 5725 5724 5724 5723 5722 5721 5720 5718 5717 5716 5714 5711 5709 5708 5705 5702 5700 5700 5699 5698 5698 5697 5697 5697 5698 5698 5697 5697 5695 5694 5691 5688 5685 5681 5677
5717 5718 5719 5718 5718 5720 5720 5720 5719 5718 5717 5718 5717 5717 5717 5716 5715 5714 5713 5711 5709 5708 5706 5703 5701 5698 5696 5695 5694 5692 5693 5692 5692 5691 5690 5691 5690 5688 5687 5685 5682 5679 5675 5671 5667
5707 5709 5711 5711 5713 5711 5712 5712 5711 5711 5710 5711 5710 5710 5710 5710 5710 5708 5707 5707 5704 5703 5701 5699 5696 5694 5692 5691 5690 5687 5686 5686 5685 5684 5684 5684 5682 5680 5678 5675 5672 5668 5664 5660 5655
5698 5699 5702 5703 5704 5704 5705 5704 5704 5704 5704 5704 5703 5703 5704 5705 5704 5703 5702 5700 5698 5697 5696 5695 5691 5689 5687 5685 5683 5682 5679 5678 5677 5676 5676 5676 5673 5673 5669 5665 5661 5657 5654 5650 5643
5686 5689 5691 5694 5695 5696 5697 5697 5697 5699 5697 5697 5697 5697 5698 5698 5697 5697 5696 5694 5693 5691 5689 5688 5686 5684 5681 5678 5676 5674 5672 5670 5669 5668 5668 5667 5666 5665 5659 5655 5651 5647 5642 5634 5627
5673 5678 5680 5684 5686 5687 5688 5689 5690 5690 5691 5692 5691 5691 5691 5691 5691 5690 5690 5689 5687 5685 5683 5682 5679 5677 5674 5671 5669 5667 5664 5661 5661 5660 5659 5658 5656 5654 5650 5646 5641 5636 5630 5624 5616
5658 5665 5669 5672 5675 5677 5679 5681 5680 5684 5683 5684 5684 5684 5685 5685 5685 5684 5684 5683 5681 5680 5677 5675 5674 5671 5667 5665 5663 5660 5658 5655 5650 5650 5650 5647 5646 5643 5639 5634 5628 5621 5614 5607 5599
5645 5651 5658 5660 5664 5666 5669 5670 5673 5676 5676 5676 5677 5677 5678 5678 5678 5677 5676 5675 5674 5673 5672 5668 5666 5663 5660 5657 5656 5654 5651 5649 5645 5643 5640 5640 5640 5636 5629 5621 5616 5610 5604 5595 5585
5631 5637 5645 5648 5651 5655 5657 5661 5664 5666 5666 5668 5669 5670 5671 5671 5672 5671 5671 5670 5667 5665 5662 5659 5657 5655 5651 5649 5648 5646 5644 5642 5639 5633 5629 5628 5628 5626 5619 5612 5604 5597 5590 5583 5573
5615 5622 5631 5635 5639 5641 5645 5651 5654 5656 5657 5659 5660 5661 5663 5663 5663 5663 5663 5662 5659 5655 5652 5649 5648 5648 5643 5642 5640 5638 5636 5634 5632 5629 5623 5616 5616 5613 5606 5599 5592 5585 5578 5570 5561
5599 5607 5617 5620 5625 5629 5636 5641 5645 5646 5647 5649 5650 5652 5654 5655 5656 5655 5654 5653 5651 5646 5644 5640 5638 5638 5635 5633 5632 5631 5628 5627 5624 5622 5618 5612 5611 5601 5595 5587 5581 5572 5565 5557 5546
5582 5593 5600 5606 5610 5619 5625 5629 5632 5635 5638 5639 5641 5642 5644 5645 5646 5648 5646 5644 5641 5638 5636 5632 5631 5629 5627 5627 5624 5622 5620 5619 5614 5611 5610 5600 5602 5593 5585 5579 5570 5562 5554 5544 5534
5567 5574 5585 5591 5600 5608 5613 5618 5621 5624 5627 5629 5631 5633 5634 5634 5636 5636 5636 5635 5632 5629 5626 5624 5624 5622 5620 5618 5616 5614 5612 5610 5605 5602 5597 5595 5589 5585 5575 5570 5561 5550 5540 5531 5519
5549 5560 5572 5578 5588 5597 5602 5605 5610 5614 5617 5619 5621 5623 5622 5625 5626 5625 5626 5624 5622 5620 5618 5616 5616 5614 5612 5610 5607 5604 5604 5599 5596 5592 5586 5587 5578 5574 5564 5557 5548 5538 5528 5517 5505
5537 5548 5558 5568 5576 5582 5588 5594 5600 5604 5607 5609 5610 5611 5613 5616 5613 5616 5616 5614 5613 5611 5609 5607 5606 5604 5604 5603 5599 5598 5596 5592 5588 5583 5576 5571 5567 5561 5554 5543 5533 5523 5512 5502 5491
5527 5534 5543 5551 5559 5568 5578 5586 5589 5591 5593 5598 5601 5602 5605 5605 5604 5606 5606 5604 5603 5602 5600 5599 5597 5594 5595 5594 5591 5591 5587 5584 5579 5573 5568 5562 5555 5547 5540 5531 5520 5510 5497 5486 5474